Location: Fort Worth, Tx
(32.7431°N, 97.3695°W)
Time: 08:24:45
(UTC-04:00)

Explorer 11/Cluster Stage 4 - Pass Details

Date: 02 February 2023
Orbit: 466 x 1241 km, 28.8° (Epoch: 02 April)

Event Time Altitude Azimuth Distance (km) Brightness Sun altitude
Exits shadow 06:49:13 18° 233° (SW) 2,563 8.8 -20.1°
Maximum altitude 06:55:03 52° 165° (SSE) 1,503 8.1 -18.9°
Drops below altitude 10° 07:02:50 10° 92° (E) 3,156 11.0 -17.3°
Sets 07:05:43 0° 87° (E) 4,069 11.8 -16.7°
